Year,Month,Day,Hour,Minute,Value (Times are PST for temperature in C)
2008,08,15,00,00,19.30
2008,08,15,00,01,19.30
2008,08,15,00,02,19.30
2008,08,15,00,03,19.20
2008,08,15,00,04,19.20
2008,08,15,00,05,19.20
2008,08,15,00,06,19.20
2008,08,15,00,07,19.10
2008,08,15,00,08,19.10
2008,08,15,00,09,19.10
2008,08,15,00,10,19.10
2008,08,15,00,11,19.00
2008,08,15,00,12,19.00
2008,08,15,00,13,19.00
2008,08,15,00,14,18.90
2008,08,15,00,15,18.90
2008,08,15,00,16,18.90
2008,08,15,00,17,18.90
2008,08,15,00,18,18.90
2008,08,15,00,19,18.90
2008,08,15,00,20,18.90
2008,08,15,00,21,18.90
2008,08,15,00,22,18.90
2008,08,15,00,23,18.80
2008,08,15,00,24,18.80
2008,08,15,00,25,18.80
2008,08,15,00,26,18.80
2008,08,15,00,27,18.80
2008,08,15,00,28,18.80
2008,08,15,00,29,18.80
2008,08,15,00,30,18.70
2008,08,15,00,31,18.70
2008,08,15,00,32,18.70
2008,08,15,00,33,18.70
2008,08,15,00,34,18.70
2008,08,15,00,35,18.70
2008,08,15,00,36,18.60
2008,08,15,00,37,18.60
2008,08,15,00,38,18.60
2008,08,15,00,39,18.60
2008,08,15,00,40,18.60
2008,08,15,00,41,18.60
2008,08,15,00,42,18.60
2008,08,15,00,43,18.60
2008,08,15,00,44,18.60
2008,08,15,00,45,18.50
2008,08,15,00,46,18.50
2008,08,15,00,47,18.50
2008,08,15,00,48,18.40
2008,08,15,00,49,18.40
2008,08,15,00,50,18.40
2008,08,15,00,51,18.40
2008,08,15,00,52,18.40
2008,08,15,00,53,18.30
2008,08,15,00,54,18.30
2008,08,15,00,55,18.30
2008,08,15,00,56,18.30
2008,08,15,00,57,18.20
2008,08,15,00,58,18.20
2008,08,15,00,59,18.20
2008,08,15,01,00,18.20
2008,08,15,01,01,18.10
2008,08,15,01,02,18.10
2008,08,15,01,03,18.10
2008,08,15,01,04,18.10
2008,08,15,01,05,18.10
2008,08,15,01,06,18.10
2008,08,15,01,07,18.00
2008,08,15,01,08,18.00
2008,08,15,01,09,18.00
2008,08,15,01,10,18.00
2008,08,15,01,11,17.90
2008,08,15,01,12,17.90
2008,08,15,01,13,17.90
2008,08,15,01,14,17.90
2008,08,15,01,15,17.90
2008,08,15,01,16,17.90
2008,08,15,01,17,17.90
2008,08,15,01,18,17.90
2008,08,15,01,19,17.90
2008,08,15,01,20,17.90
2008,08,15,01,21,17.80
2008,08,15,01,22,17.80
2008,08,15,01,23,17.80
2008,08,15,01,24,17.80
2008,08,15,01,25,17.80
2008,08,15,01,26,17.80
2008,08,15,01,27,17.80
2008,08,15,01,28,17.80
2008,08,15,01,29,17.80
2008,08,15,01,30,17.80
2008,08,15,01,31,17.80
2008,08,15,01,32,17.80
2008,08,15,01,33,17.80
2008,08,15,01,34,17.80
2008,08,15,01,35,17.80
2008,08,15,01,36,17.80
2008,08,15,01,37,17.80
2008,08,15,01,38,17.80
2008,08,15,01,39,17.80
2008,08,15,01,40,17.80
2008,08,15,01,41,17.80
2008,08,15,01,42,17.80
2008,08,15,01,43,17.80
2008,08,15,01,44,17.80
2008,08,15,01,45,17.80
2008,08,15,01,46,17.80
2008,08,15,01,47,17.70
2008,08,15,01,48,17.70
2008,08,15,01,49,17.70
2008,08,15,01,50,17.70
2008,08,15,01,51,17.70
2008,08,15,01,52,17.70
2008,08,15,01,53,17.60
2008,08,15,01,54,17.60
2008,08,15,01,55,17.60
2008,08,15,01,56,17.60
2008,08,15,01,57,17.60
2008,08,15,01,58,17.60
2008,08,15,01,59,17.60
2008,08,15,02,00,17.60
2008,08,15,02,01,17.60
2008,08,15,02,02,17.60
2008,08,15,02,03,17.60
2008,08,15,02,04,17.60
2008,08,15,02,05,17.60
2008,08,15,02,06,17.60
2008,08,15,02,07,17.60
2008,08,15,02,08,17.60
2008,08,15,02,09,17.60
2008,08,15,02,10,17.60
2008,08,15,02,11,17.60
2008,08,15,02,12,17.50
2008,08,15,02,13,17.50
2008,08,15,02,14,17.50
2008,08,15,02,15,17.50
2008,08,15,02,16,17.40
2008,08,15,02,17,17.40
2008,08,15,02,18,17.40
2008,08,15,02,19,17.40
2008,08,15,02,20,17.40
2008,08,15,02,21,17.40
2008,08,15,02,22,17.40
2008,08,15,02,23,17.40
2008,08,15,02,24,17.40
2008,08,15,02,25,17.40
2008,08,15,02,26,17.40
2008,08,15,02,27,17.40
2008,08,15,02,28,17.30
2008,08,15,02,29,17.30
2008,08,15,02,30,17.30
2008,08,15,02,31,17.30
2008,08,15,02,32,17.30
2008,08,15,02,33,17.30
2008,08,15,02,34,17.30
2008,08,15,02,35,17.30
2008,08,15,02,36,17.30
2008,08,15,02,37,17.30
2008,08,15,02,38,17.30
2008,08,15,02,39,17.30
2008,08,15,02,40,17.20
2008,08,15,02,41,17.20
2008,08,15,02,42,17.20
2008,08,15,02,43,17.20
2008,08,15,02,44,17.20
2008,08,15,02,45,17.20
2008,08,15,02,46,17.20
2008,08,15,02,47,17.20
2008,08,15,02,48,17.20
2008,08,15,02,49,17.20
2008,08,15,02,50,17.10
2008,08,15,02,51,17.10
2008,08,15,02,52,17.10
2008,08,15,02,53,17.10
2008,08,15,02,54,17.00
2008,08,15,02,55,17.00
2008,08,15,02,56,17.00
2008,08,15,02,57,16.90
2008,08,15,02,58,16.90
2008,08,15,02,59,16.90
2008,08,15,03,00,16.90
2008,08,15,03,01,16.90
2008,08,15,03,02,16.90
2008,08,15,03,03,16.90
2008,08,15,03,04,16.90
2008,08,15,03,05,16.90
2008,08,15,03,06,16.80
2008,08,15,03,07,16.80
2008,08,15,03,08,16.80
2008,08,15,03,09,16.80
2008,08,15,03,10,16.80
2008,08,15,03,11,16.80
2008,08,15,03,12,16.80
2008,08,15,03,13,16.80
2008,08,15,03,14,16.80
2008,08,15,03,15,16.80
2008,08,15,03,16,16.80
2008,08,15,03,17,16.70
2008,08,15,03,18,16.70
2008,08,15,03,19,16.70
2008,08,15,03,20,16.70
2008,08,15,03,21,16.70
2008,08,15,03,22,16.70
2008,08,15,03,23,16.70
2008,08,15,03,24,16.70
2008,08,15,03,25,16.70
2008,08,15,03,26,16.70
2008,08,15,03,27,16.70
2008,08,15,03,28,16.70
2008,08,15,03,29,16.70
2008,08,15,03,30,16.70
2008,08,15,03,31,16.70
2008,08,15,03,32,16.70
2008,08,15,03,33,16.70
2008,08,15,03,34,16.70
2008,08,15,03,35,16.70
2008,08,15,03,36,16.70
2008,08,15,03,37,16.70
2008,08,15,03,38,16.70
2008,08,15,03,39,16.70
2008,08,15,03,40,16.70
2008,08,15,03,41,16.70
2008,08,15,03,42,16.70
2008,08,15,03,43,16.70
2008,08,15,03,44,16.60
2008,08,15,03,45,16.60
2008,08,15,03,46,16.60
2008,08,15,03,47,16.60
2008,08,15,03,48,16.60
2008,08,15,03,49,16.60
2008,08,15,03,50,16.60
2008,08,15,03,51,16.60
2008,08,15,03,52,16.60
2008,08,15,03,53,16.60
2008,08,15,03,54,16.60
2008,08,15,03,55,16.60
2008,08,15,03,56,16.60
2008,08,15,03,57,16.50
2008,08,15,03,58,16.50
2008,08,15,03,59,16.40
2008,08,15,04,00,16.40
2008,08,15,04,01,16.40
2008,08,15,04,02,16.40
2008,08,15,04,03,16.30
2008,08,15,04,04,16.30
2008,08,15,04,05,16.30
2008,08,15,04,06,16.30
2008,08,15,04,07,16.30
2008,08,15,04,08,16.30
2008,08,15,04,09,16.30
2008,08,15,04,10,16.30
2008,08,15,04,11,16.30
2008,08,15,04,12,16.30
2008,08,15,04,13,16.30
2008,08,15,04,14,16.30
2008,08,15,04,15,16.30
2008,08,15,04,16,16.30
2008,08,15,04,17,16.30
2008,08,15,04,18,16.30
2008,08,15,04,19,16.30
2008,08,15,04,20,16.30
2008,08,15,04,21,16.30
2008,08,15,04,22,16.30
2008,08,15,04,23,16.30
2008,08,15,04,24,16.30
2008,08,15,04,25,16.30
2008,08,15,04,26,16.30
2008,08,15,04,27,16.30
2008,08,15,04,28,16.30
2008,08,15,04,29,16.30
2008,08,15,04,30,16.30
2008,08,15,04,31,16.30
2008,08,15,04,32,16.30
2008,08,15,04,33,16.30
2008,08,15,04,34,16.20
2008,08,15,04,35,16.20
2008,08,15,04,36,16.20
2008,08,15,04,37,16.20
2008,08,15,04,38,16.20
2008,08,15,04,39,16.20
2008,08,15,04,40,16.20
2008,08,15,04,41,16.20
2008,08,15,04,42,16.20
2008,08,15,04,43,16.10
2008,08,15,04,44,16.10
2008,08,15,04,45,16.10
2008,08,15,04,46,16.10
2008,08,15,04,47,16.10
2008,08,15,04,48,16.10
2008,08,15,04,49,16.10
2008,08,15,04,50,16.10
2008,08,15,04,51,16.10
2008,08,15,04,52,16.00
2008,08,15,04,53,16.00
2008,08,15,04,54,16.00
2008,08,15,04,55,16.00
2008,08,15,04,56,16.00
2008,08,15,04,57,15.90
2008,08,15,04,58,15.90
2008,08,15,04,59,15.90
2008,08,15,05,00,15.90
2008,08,15,05,01,15.90
2008,08,15,05,02,15.90
2008,08,15,05,03,15.90
2008,08,15,05,04,15.90
2008,08,15,05,05,15.90
2008,08,15,05,06,15.90
2008,08,15,05,07,15.90
2008,08,15,05,08,15.80
2008,08,15,05,09,15.80
2008,08,15,05,10,15.80
2008,08,15,05,11,15.80
2008,08,15,05,12,15.80
2008,08,15,05,13,15.80
2008,08,15,05,14,15.80
2008,08,15,05,15,15.80
2008,08,15,05,16,15.80
2008,08,15,05,17,15.80
2008,08,15,05,18,15.80
2008,08,15,05,19,15.70
2008,08,15,05,20,15.70
2008,08,15,05,21,15.60
2008,08,15,05,22,15.60
2008,08,15,05,23,15.60
2008,08,15,05,24,15.60
2008,08,15,05,25,15.60
2008,08,15,05,26,15.60
2008,08,15,05,27,15.60
2008,08,15,05,28,15.50
2008,08,15,05,29,15.50
2008,08,15,05,30,15.50
2008,08,15,05,31,15.50
2008,08,15,05,32,15.50
2008,08,15,05,33,15.50
2008,08,15,05,34,15.50
2008,08,15,05,35,15.40
2008,08,15,05,36,15.40
2008,08,15,05,37,15.40
2008,08,15,05,38,15.40
2008,08,15,05,39,15.40
2008,08,15,05,40,15.40
2008,08,15,05,41,15.40
2008,08,15,05,42,15.40
2008,08,15,05,43,15.40
2008,08,15,05,44,15.40
2008,08,15,05,45,15.40
2008,08,15,05,46,15.40
2008,08,15,05,47,15.40
2008,08,15,05,48,15.30
2008,08,15,05,49,15.30
2008,08,15,05,50,15.30
2008,08,15,05,51,15.30
2008,08,15,05,52,15.30
2008,08,15,05,53,15.30
2008,08,15,05,54,15.40
2008,08,15,05,55,15.40
2008,08,15,05,56,15.40
2008,08,15,05,57,15.40
2008,08,15,05,58,15.40
2008,08,15,05,59,15.40
2008,08,15,06,00,15.50
2008,08,15,06,01,15.50
2008,08,15,06,02,15.50
2008,08,15,06,03,15.50
2008,08,15,06,04,15.50
2008,08,15,06,05,15.50
2008,08,15,06,06,15.50
2008,08,15,06,07,15.50
2008,08,15,06,08,15.50
2008,08,15,06,09,15.50
2008,08,15,06,10,15.60
2008,08,15,06,11,15.60
2008,08,15,06,12,15.60
2008,08,15,06,13,15.70
2008,08,15,06,14,15.70
2008,08,15,06,15,15.80
2008,08,15,06,16,15.80
2008,08,15,06,17,15.80
2008,08,15,06,18,15.80
2008,08,15,06,19,15.80
2008,08,15,06,20,15.80
2008,08,15,06,21,15.80
2008,08,15,06,22,15.80
2008,08,15,06,23,15.80
2008,08,15,06,24,15.80
2008,08,15,06,25,15.80
2008,08,15,06,26,15.80
2008,08,15,06,27,15.80
2008,08,15,06,28,15.80
2008,08,15,06,29,15.80
2008,08,15,06,30,15.80
2008,08,15,06,31,15.80
2008,08,15,06,32,15.80
2008,08,15,06,33,15.80
2008,08,15,06,34,15.80
2008,08,15,06,35,15.80
2008,08,15,06,36,15.80
2008,08,15,06,37,15.80
2008,08,15,06,38,15.80
2008,08,15,06,39,15.80
2008,08,15,06,40,15.80
2008,08,15,06,41,15.80
2008,08,15,06,42,15.80
2008,08,15,06,43,15.80
2008,08,15,06,44,15.80
2008,08,15,06,45,15.80
2008,08,15,06,46,15.80
2008,08,15,06,47,15.80
2008,08,15,06,48,15.80
2008,08,15,06,49,15.80
2008,08,15,06,50,15.80
2008,08,15,06,51,15.80
2008,08,15,06,52,15.80
2008,08,15,06,53,15.80
2008,08,15,06,54,15.80
2008,08,15,06,55,15.90
2008,08,15,06,56,15.90
2008,08,15,06,57,15.90
2008,08,15,06,58,15.90
2008,08,15,06,59,15.90
2008,08,15,07,00,15.90
2008,08,15,07,01,16.00
2008,08,15,07,02,16.00
2008,08,15,07,03,16.00
2008,08,15,07,04,16.10
2008,08,15,07,05,16.10
2008,08,15,07,06,16.10
2008,08,15,07,07,16.20
2008,08,15,07,08,16.20
2008,08,15,07,09,16.20
2008,08,15,07,10,16.20
2008,08,15,07,11,16.20
2008,08,15,07,12,16.30
2008,08,15,07,13,16.30
2008,08,15,07,14,16.30
2008,08,15,07,15,16.30
2008,08,15,07,16,16.40
2008,08,15,07,17,16.40
2008,08,15,07,18,16.40
2008,08,15,07,19,16.50
2008,08,15,07,20,16.50
2008,08,15,07,21,16.50
2008,08,15,07,22,16.60
2008,08,15,07,23,16.60
2008,08,15,07,24,16.70
2008,08,15,07,25,16.70
2008,08,15,07,26,16.70
2008,08,15,07,27,16.80
2008,08,15,07,28,16.80
2008,08,15,07,29,16.80
2008,08,15,07,30,16.90
2008,08,15,07,31,16.90
2008,08,15,07,32,16.90
2008,08,15,07,33,17.00
2008,08,15,07,34,17.10
2008,08,15,07,35,17.10
2008,08,15,07,36,17.20
2008,08,15,07,37,17.20
2008,08,15,07,38,17.30
2008,08,15,07,39,17.30
2008,08,15,07,40,17.30
2008,08,15,07,41,17.30
2008,08,15,07,42,17.40
2008,08,15,07,43,17.40
2008,08,15,07,44,17.50
2008,08,15,07,45,17.50
2008,08,15,07,46,17.60
2008,08,15,07,47,17.60
2008,08,15,07,48,17.60
2008,08,15,07,49,17.70
2008,08,15,07,50,17.70
2008,08,15,07,51,17.80
2008,08,15,07,52,17.80
2008,08,15,07,53,17.90
2008,08,15,07,54,17.90
2008,08,15,07,55,17.90
2008,08,15,07,56,18.00
2008,08,15,07,57,18.10
2008,08,15,07,58,18.10
2008,08,15,07,59,18.20
2008,08,15,08,00,18.20
2008,08,15,08,01,18.20
2008,08,15,08,02,18.30
2008,08,15,08,03,18.40
2008,08,15,08,04,18.40
2008,08,15,08,05,18.50
2008,08,15,08,06,18.50
2008,08,15,08,07,18.60
2008,08,15,08,08,18.60
2008,08,15,08,09,18.70
2008,08,15,08,10,18.70
2008,08,15,08,11,18.70
2008,08,15,08,12,18.80
2008,08,15,08,13,18.80
2008,08,15,08,14,18.90
2008,08,15,08,15,19.00
2008,08,15,08,16,19.00
2008,08,15,08,17,19.10
2008,08,15,08,18,19.20
2008,08,15,08,19,19.30
2008,08,15,08,20,19.30
2008,08,15,08,21,19.40
2008,08,15,08,22,19.50
2008,08,15,08,23,19.50
2008,08,15,08,24,19.60
2008,08,15,08,25,19.70
2008,08,15,08,26,19.80
2008,08,15,08,27,19.80
2008,08,15,08,28,19.80
2008,08,15,08,29,19.90
2008,08,15,08,30,20.00
2008,08,15,08,31,20.00
2008,08,15,08,32,20.10
2008,08,15,08,33,20.20
2008,08,15,08,34,20.30
2008,08,15,08,35,20.30
2008,08,15,08,36,20.40
2008,08,15,08,37,20.50
2008,08,15,08,38,20.60
2008,08,15,08,39,20.70
2008,08,15,08,40,20.70
2008,08,15,08,41,20.80
2008,08,15,08,42,20.80
2008,08,15,08,43,20.90
2008,08,15,08,44,20.90
2008,08,15,08,45,21.00
2008,08,15,08,46,21.10
2008,08,15,08,47,21.10
2008,08,15,08,48,21.20
2008,08,15,08,49,21.20
2008,08,15,08,50,21.20
2008,08,15,08,51,21.30
2008,08,15,08,52,21.30
2008,08,15,08,53,21.30
2008,08,15,08,54,21.40
2008,08,15,08,55,21.40
2008,08,15,08,56,21.50
2008,08,15,08,57,21.50
2008,08,15,08,58,21.60
2008,08,15,08,59,21.60
2008,08,15,09,00,21.60
2008,08,15,09,01,21.60
2008,08,15,09,02,21.60
2008,08,15,09,03,21.60
2008,08,15,09,04,21.60
2008,08,15,09,05,21.60
2008,08,15,09,06,21.60
2008,08,15,09,07,21.60
2008,08,15,09,08,21.70
2008,08,15,09,09,21.70
2008,08,15,09,10,21.80
2008,08,15,09,11,21.80
2008,08,15,09,12,21.80
2008,08,15,09,13,21.90
2008,08,15,09,14,22.00
2008,08,15,09,15,22.00
2008,08,15,09,16,22.10
2008,08,15,09,17,22.10
2008,08,15,09,18,22.20
2008,08,15,09,19,22.30
2008,08,15,09,20,22.30
2008,08,15,09,21,22.40
2008,08,15,09,22,22.40
2008,08,15,09,23,22.50
2008,08,15,09,24,22.60
2008,08,15,09,25,22.70
2008,08,15,09,26,22.80
2008,08,15,09,27,22.90
2008,08,15,09,28,22.90
2008,08,15,09,29,23.00
2008,08,15,09,30,23.10
2008,08,15,09,31,23.10
2008,08,15,09,32,23.20
2008,08,15,09,33,23.30
2008,08,15,09,34,23.30
2008,08,15,09,35,23.30
2008,08,15,09,36,23.30
2008,08,15,09,37,23.30
2008,08,15,09,38,23.30
2008,08,15,09,39,23.20
2008,08,15,09,40,23.20
2008,08,15,09,41,23.10
2008,08,15,09,42,23.10
2008,08,15,09,43,23.10
2008,08,15,09,44,23.00
2008,08,15,09,45,23.00
2008,08,15,09,46,23.00
2008,08,15,09,47,23.00
2008,08,15,09,48,23.10
2008,08,15,09,49,23.10
2008,08,15,09,50,23.20
2008,08,15,09,51,23.30
2008,08,15,09,52,23.40
2008,08,15,09,53,23.40
2008,08,15,09,54,23.50
2008,08,15,09,55,23.60
2008,08,15,09,56,23.60
2008,08,15,09,57,23.70
2008,08,15,09,58,23.70
2008,08,15,09,59,23.80
2008,08,15,10,00,23.80
2008,08,15,10,01,23.80
2008,08,15,10,02,23.90
2008,08,15,10,03,23.90
2008,08,15,10,04,23.90
2008,08,15,10,05,23.90
2008,08,15,10,06,24.00
2008,08,15,10,07,24.00
2008,08,15,10,08,24.00
2008,08,15,10,09,24.00
2008,08,15,10,10,24.00
2008,08,15,10,11,24.10
2008,08,15,10,12,24.10
2008,08,15,10,13,24.10
2008,08,15,10,14,24.00
2008,08,15,10,15,24.00
2008,08,15,10,16,23.90
2008,08,15,10,17,23.90
2008,08,15,10,18,23.90
2008,08,15,10,19,23.90
2008,08,15,10,20,24.00
2008,08,15,10,21,24.10
2008,08,15,10,22,24.10
2008,08,15,10,23,24.10
2008,08,15,10,24,24.20
2008,08,15,10,25,24.20
2008,08,15,10,26,24.20
2008,08,15,10,27,24.20
2008,08,15,10,28,24.20
2008,08,15,10,29,24.20
2008,08,15,10,30,24.10
2008,08,15,10,31,24.10
2008,08,15,10,32,24.10
2008,08,15,10,33,24.20
2008,08,15,10,34,24.20
2008,08,15,10,35,24.20
2008,08,15,10,36,24.10
2008,08,15,10,37,24.10
2008,08,15,10,38,24.10
2008,08,15,10,39,24.10
2008,08,15,10,40,24.10
2008,08,15,10,41,24.10
2008,08,15,10,42,24.10
2008,08,15,10,43,24.20
2008,08,15,10,44,24.20
2008,08,15,10,45,24.20
2008,08,15,10,46,24.30
2008,08,15,10,47,24.40
2008,08,15,10,48,24.40
2008,08,15,10,49,24.60
2008,08,15,10,50,24.70
2008,08,15,10,51,24.80
2008,08,15,10,52,24.90
2008,08,15,10,53,25.10
2008,08,15,10,54,25.20
2008,08,15,10,55,25.40
2008,08,15,10,56,25.50
2008,08,15,10,57,25.60
2008,08,15,10,58,25.70
2008,08,15,10,59,25.70
2008,08,15,11,00,25.80
2008,08,15,11,01,25.80
2008,08,15,11,02,25.80
2008,08,15,11,03,25.80
2008,08,15,11,04,25.80
2008,08,15,11,05,25.90
2008,08,15,11,06,25.90
2008,08,15,11,07,26.00
2008,08,15,11,08,26.20
2008,08,15,11,09,26.30
2008,08,15,11,10,26.50
2008,08,15,11,11,26.60
2008,08,15,11,12,26.70
2008,08,15,11,13,26.80
2008,08,15,11,14,27.00
2008,08,15,11,15,27.10
2008,08,15,11,16,27.10
2008,08,15,11,17,27.20
2008,08,15,11,18,27.20
2008,08,15,11,19,27.20
2008,08,15,11,20,27.10
2008,08,15,11,21,27.00
2008,08,15,11,22,26.90
2008,08,15,11,23,26.90
2008,08,15,11,24,26.80
2008,08,15,11,25,26.70
2008,08,15,11,26,26.70
2008,08,15,11,27,26.60
2008,08,15,11,28,26.50
2008,08,15,11,29,26.30
2008,08,15,11,30,26.10
2008,08,15,11,31,26.00
2008,08,15,11,32,25.90
2008,08,15,11,33,25.90
2008,08,15,11,34,25.90
2008,08,15,11,35,25.90
2008,08,15,11,36,25.90
2008,08,15,11,37,25.80
2008,08,15,11,38,25.90
2008,08,15,11,39,25.90
2008,08,15,11,40,25.90
2008,08,15,11,41,25.90
2008,08,15,11,42,25.90
2008,08,15,11,43,25.90
2008,08,15,11,44,25.90
2008,08,15,11,45,25.80
2008,08,15,11,46,25.80
2008,08,15,11,47,25.80
2008,08,15,11,48,25.80
2008,08,15,11,49,25.80
2008,08,15,11,50,25.70
2008,08,15,11,51,25.70
2008,08,15,11,52,25.60
2008,08,15,11,53,25.60
2008,08,15,11,54,25.60
2008,08,15,11,55,25.60
2008,08,15,11,56,25.70
2008,08,15,11,57,25.80
2008,08,15,11,58,25.90
2008,08,15,11,59,26.00
2008,08,15,12,00,26.10
2008,08,15,12,01,26.20
2008,08,15,12,02,26.40
2008,08,15,12,03,26.50
2008,08,15,12,04,26.60
2008,08,15,12,05,26.70
2008,08,15,12,06,26.70
2008,08,15,12,07,26.60
2008,08,15,12,08,26.60
2008,08,15,12,09,26.50
2008,08,15,12,10,26.50
2008,08,15,12,11,26.40
2008,08,15,12,12,26.40
2008,08,15,12,13,26.30
2008,08,15,12,14,26.30
2008,08,15,12,15,26.20
2008,08,15,12,16,26.20
2008,08,15,12,17,26.20
2008,08,15,12,18,26.20
2008,08,15,12,19,26.20
2008,08,15,12,20,26.20
2008,08,15,12,21,26.30
2008,08,15,12,22,26.30
2008,08,15,12,23,26.40
2008,08,15,12,24,26.40
2008,08,15,12,25,26.40
2008,08,15,12,26,26.30
2008,08,15,12,27,26.20
2008,08,15,12,28,26.10
2008,08,15,12,29,26.10
2008,08,15,12,30,26.20
2008,08,15,12,31,26.20
2008,08,15,12,32,26.20
2008,08,15,12,33,26.20
2008,08,15,12,34,26.10
2008,08,15,12,35,26.10
2008,08,15,12,36,26.10
2008,08,15,12,37,26.00
2008,08,15,12,38,26.00
2008,08,15,12,39,25.90
2008,08,15,12,40,25.90
2008,08,15,12,41,25.90
2008,08,15,12,42,25.90
2008,08,15,12,43,25.90
2008,08,15,12,44,26.00
2008,08,15,12,45,25.90
2008,08,15,12,46,25.90
2008,08,15,12,47,25.90
2008,08,15,12,48,25.90
2008,08,15,12,49,25.90
2008,08,15,12,50,25.90
2008,08,15,12,51,25.90
2008,08,15,12,52,25.90
2008,08,15,12,53,25.90
2008,08,15,12,54,25.80
2008,08,15,12,55,25.80
2008,08,15,12,56,25.80
2008,08,15,12,57,25.80
2008,08,15,12,58,25.80
2008,08,15,12,59,25.80
2008,08,15,13,00,25.80
2008,08,15,13,01,25.70
2008,08,15,13,02,25.50
2008,08,15,13,03,25.30
2008,08,15,13,04,25.00
2008,08,15,13,05,24.70
2008,08,15,13,06,24.50
2008,08,15,13,07,24.30
2008,08,15,13,08,24.10
2008,08,15,13,09,23.90
2008,08,15,13,10,23.70
2008,08,15,13,11,23.50
2008,08,15,13,12,23.40
2008,08,15,13,13,23.30
2008,08,15,13,14,23.30
2008,08,15,13,15,23.20
2008,08,15,13,16,23.20
2008,08,15,13,17,23.20
2008,08,15,13,18,23.20
2008,08,15,13,19,23.30
2008,08,15,13,20,23.30
2008,08,15,13,21,23.30
2008,08,15,13,22,23.30
2008,08,15,13,23,23.30
2008,08,15,13,24,23.30
2008,08,15,13,25,23.30
2008,08,15,13,26,23.30
2008,08,15,13,27,23.30
2008,08,15,13,28,23.30
2008,08,15,13,29,23.30
2008,08,15,13,30,23.40
2008,08,15,13,31,23.50
2008,08,15,13,32,23.50
2008,08,15,13,33,23.60
2008,08,15,13,34,23.60
2008,08,15,13,35,23.60
2008,08,15,13,36,23.50
2008,08,15,13,37,23.50
2008,08,15,13,38,23.50
2008,08,15,13,39,23.40
2008,08,15,13,40,23.40
2008,08,15,13,41,23.40
2008,08,15,13,42,23.40
2008,08,15,13,43,23.40
2008,08,15,13,44,23.40
2008,08,15,13,45,23.40
2008,08,15,13,46,23.40
2008,08,15,13,47,23.50
2008,08,15,13,48,23.50
2008,08,15,13,49,23.60
2008,08,15,13,50,23.60
2008,08,15,13,51,23.70
2008,08,15,13,52,23.80
2008,08,15,13,53,23.80
2008,08,15,13,54,23.90
2008,08,15,13,55,24.00
2008,08,15,13,56,24.10
2008,08,15,13,57,24.20
2008,08,15,13,58,24.30
2008,08,15,13,59,24.40
2008,08,15,14,00,24.50
2008,08,15,14,01,24.60
2008,08,15,14,02,24.70
2008,08,15,14,03,24.80
2008,08,15,14,04,24.90
2008,08,15,14,05,25.00
2008,08,15,14,06,25.10
2008,08,15,14,07,25.20
2008,08,15,14,08,25.20
2008,08,15,14,09,25.20
2008,08,15,14,10,25.20
2008,08,15,14,11,25.30
2008,08,15,14,12,25.30
2008,08,15,14,13,25.40
2008,08,15,14,14,25.50
2008,08,15,14,15,25.50
2008,08,15,14,16,25.60
2008,08,15,14,17,25.60
2008,08,15,14,18,25.50
2008,08,15,14,19,25.50
2008,08,15,14,20,25.30
2008,08,15,14,21,25.20
2008,08,15,14,22,25.10
2008,08,15,14,23,24.90
2008,08,15,14,24,24.80
2008,08,15,14,25,24.70
2008,08,15,14,26,24.50
2008,08,15,14,27,24.40
2008,08,15,14,28,24.30
2008,08,15,14,29,24.20
2008,08,15,14,30,24.10
2008,08,15,14,31,24.00
2008,08,15,14,32,24.00
2008,08,15,14,33,24.00
2008,08,15,14,34,24.00
2008,08,15,14,35,24.10
2008,08,15,14,36,24.10
2008,08,15,14,37,24.10
2008,08,15,14,38,24.20
2008,08,15,14,39,24.30
2008,08,15,14,40,24.30
2008,08,15,14,41,24.30
2008,08,15,14,42,24.30
2008,08,15,14,43,24.30
2008,08,15,14,44,24.40
2008,08,15,14,45,24.40
2008,08,15,14,46,24.40
2008,08,15,14,47,24.40
2008,08,15,14,48,24.40
2008,08,15,14,49,24.40
2008,08,15,14,50,24.40
2008,08,15,14,51,24.40
2008,08,15,14,52,24.30
2008,08,15,14,53,24.30
2008,08,15,14,54,24.30
2008,08,15,14,55,24.20
2008,08,15,14,56,24.10
2008,08,15,14,57,24.10
2008,08,15,14,58,24.00
2008,08,15,14,59,24.00
2008,08,15,15,00,23.90
2008,08,15,15,01,23.90
2008,08,15,15,02,23.90
2008,08,15,15,03,23.80
2008,08,15,15,04,23.80
2008,08,15,15,05,23.70
2008,08,15,15,06,23.70
2008,08,15,15,07,23.70
2008,08,15,15,08,23.70
2008,08,15,15,09,23.70
2008,08,15,15,10,23.80
2008,08,15,15,11,23.90
2008,08,15,15,12,23.90
2008,08,15,15,13,24.10
2008,08,15,15,14,24.10
2008,08,15,15,15,24.20
2008,08,15,15,16,24.20
2008,08,15,15,17,24.30
2008,08,15,15,18,24.30
2008,08,15,15,19,24.40
2008,08,15,15,20,24.50
2008,08,15,15,21,24.50
2008,08,15,15,22,24.60
2008,08,15,15,23,24.70
2008,08,15,15,24,24.70
2008,08,15,15,25,24.80
2008,08,15,15,26,24.80
2008,08,15,15,27,24.80
2008,08,15,15,28,24.80
2008,08,15,15,29,24.80
2008,08,15,15,30,24.80
2008,08,15,15,31,24.90
2008,08,15,15,32,24.90
2008,08,15,15,33,24.90
2008,08,15,15,34,24.90
2008,08,15,15,35,24.90
2008,08,15,15,36,25.00
2008,08,15,15,37,25.00
2008,08,15,15,38,25.00
2008,08,15,15,39,25.00
2008,08,15,15,40,25.00
2008,08,15,15,41,25.10
2008,08,15,15,42,25.20
2008,08,15,15,43,25.20
2008,08,15,15,44,25.30
2008,08,15,15,45,25.30
2008,08,15,15,46,25.30
2008,08,15,15,47,25.30
2008,08,15,15,48,25.20
2008,08,15,15,49,25.10
2008,08,15,15,50,25.10
2008,08,15,15,51,25.10
2008,08,15,15,52,25.10
2008,08,15,15,53,25.10
2008,08,15,15,54,25.00
2008,08,15,15,55,25.00
2008,08,15,15,56,25.10
2008,08,15,15,57,25.10
2008,08,15,15,58,25.20
2008,08,15,15,59,25.20
2008,08,15,16,00,25.30
2008,08,15,16,01,25.30
2008,08,15,16,02,25.30
2008,08,15,16,03,25.30
2008,08,15,16,04,25.30
2008,08,15,16,05,25.30
2008,08,15,16,06,25.20
2008,08,15,16,07,25.20
2008,08,15,16,08,25.20
2008,08,15,16,09,25.20
2008,08,15,16,10,25.20
2008,08,15,16,11,25.20
2008,08,15,16,12,25.30
2008,08,15,16,13,25.30
2008,08,15,16,14,25.40
2008,08,15,16,15,25.50
2008,08,15,16,16,25.60
2008,08,15,16,17,25.60
2008,08,15,16,18,25.70
2008,08,15,16,19,25.80
2008,08,15,16,20,25.80
2008,08,15,16,21,25.90
2008,08,15,16,22,25.90
2008,08,15,16,23,26.00
2008,08,15,16,24,26.10
2008,08,15,16,25,26.20
2008,08,15,16,26,26.20
2008,08,15,16,27,26.30
2008,08,15,16,28,26.30
2008,08,15,16,29,26.40
2008,08,15,16,30,26.50
2008,08,15,16,31,26.50
2008,08,15,16,32,26.60
2008,08,15,16,33,26.70
2008,08,15,16,34,26.80
2008,08,15,16,35,26.80
2008,08,15,16,36,26.90
2008,08,15,16,37,26.90
2008,08,15,16,38,26.80
2008,08,15,16,39,26.80
2008,08,15,16,40,26.80
2008,08,15,16,41,26.70
2008,08,15,16,42,26.70
2008,08,15,16,43,26.70
2008,08,15,16,44,26.70
2008,08,15,16,45,26.80
2008,08,15,16,46,26.80
2008,08,15,16,47,26.90
2008,08,15,16,48,26.90
2008,08,15,16,49,26.90
2008,08,15,16,50,26.90
2008,08,15,16,51,26.90
2008,08,15,16,52,26.90
2008,08,15,16,53,26.90
2008,08,15,16,54,26.90
2008,08,15,16,55,26.90
2008,08,15,16,56,26.90
2008,08,15,16,57,26.90
2008,08,15,16,58,26.90
2008,08,15,16,59,26.90
2008,08,15,17,00,26.90
2008,08,15,17,01,26.80
2008,08,15,17,02,26.80
2008,08,15,17,03,26.60
2008,08,15,17,04,26.30
2008,08,15,17,05,26.00
2008,08,15,17,06,25.80
2008,08,15,17,07,25.60
2008,08,15,17,08,25.40
2008,08,15,17,09,25.30
2008,08,15,17,10,25.20
2008,08,15,17,11,24.90
2008,08,15,17,12,24.60
2008,08,15,17,13,24.40
2008,08,15,17,14,24.30
2008,08,15,17,15,24.20
2008,08,15,17,16,24.20
2008,08,15,17,17,24.20
2008,08,15,17,18,24.10
2008,08,15,17,19,24.20